Location: Aufkirchen
(47.9603°N, 11.3653°E)
Time: 06:37:18
(UTC+01:00)

Transit 4A - Pass Details

Date: 01 December 2020
Orbit: 864 x 980 km, 66.8° (Epoch: 25 January)

Event Time Altitude Azimuth Distance (km) Brightness Sun altitude
Rises 16:22:22 0° 324° (NW) 3,684 11.1 -0.7°
Reaches altitude 10° 16:24:58 10° 323° (NW) 2,725 10.4 -1.0°
Maximum altitude 16:31:19 74° 240° (WSW) 998 8.4 -1.9°
Drops below altitude 10° 16:37:29 10° 156° (SSE) 2,644 10.4 -2.8°
Sets 16:39:58 0° 155° (SSE) 3,567 11.0 -3.2°
